Other Public Products
Issued by NWS Grand Forks, ND

Home | Current Version | Previous Version | Graphics & Text | Print | Product List | Glossary On
Versions: 1 2 3 4 5 6 7 8 9 10 11 12 13 14 15 16 17 18 19 20 21 22 23 24 25 26 27 28 29 30 31 32 33 34 35 36 37 38 39 40 41 42 43 44 45 46 47 48 49 50
000
FPUS83 KFGF 291610
OPUFGF
PRAIRIE TO PINES WEATHER ROUNDUP
NATIONAL WEATHER SERVICE EASTERN NORTH DAKOTA/GRAND FORKS ND
1100 AM CDT MON JUN 29 2015

 **SATELLITE DATA USED TO AUGMENT SKY COVER AT AUTOMATED STATIONS**
 *****  WEATHER ACROSS EASTERN NORTH DAKOTA  *****

CITY           SKY/WX    TMP DP  RH WIND       PRES   REMARKS
GRAND FORKS    CLOUDY    73  62  68 N9        29.84S
GRAND FORKS AF SUNNY     73  61  67 N12       29.86R
GRAND CITY NWS   N/A     73 N/A N/A N10         N/A
BUXTON         NOT AVBL
DEVILS LAKE    SUNNY     72  61  68 N10       29.90R
FARGO          SUNNY     74  62  66 W12       29.84S
WAHPETON ARPT  SUNNY     70  63  78 W9        29.87F
$$

 *****  WEATHER ACROSS CENTRAL AND WESTERN NORTH DAKOTA  *****

CITY           SKY/WX    TMP DP  RH WIND       PRES   REMARKS
JAMESTOWN      SUNNY     75  62  64 NW12      29.91S
BISMARCK       SUNNY     80  62  54 W5        29.98F
MINOT          PTSUNNY   81  60  48 W12       29.95F
MINOT AFB      SUNNY     83  62  48 W8        29.94F
GARRISON         N/A     82  64  54 NW6       29.98S
WILLISTON      SUNNY     83  61  47 S7        29.99F
DICKINSON      MOSUNNY   82  63  52 NW3       30.02S
HETTINGER      SUNNY     81  64  56 W6        30.05F
$$

 *****  OTHER OBSERVATIONS NORTHEAST NORTH DAKOTA  *****

CITY           SKY/WX    TMP DP  RH WIND       PRES   REMARKS
WALHALLA       FAIR      72  66  83 MISG      29.88S
LANGDON        FAIR      68  63  83 N10       29.92R
CAVALIER       FAIR      72  63  73 N10       29.86S
GRAFTON        FAIR      72  63  73 NW9       29.86S
CANDO          FAIR      72  63  73 N12G18    29.92S
FORT TOTTEN      N/A     75  65  70 NW2       29.95S
ROLLA          FAIR      72  59  64 N12       29.95S
RUGBY          NOT AVBL
 ***** THE ABOVE OBSERVATIONS ARE NON NWS ARE NOT QUALITY
        CONTROLLED AND MAY MIS-REPORT RAIN FOR SNOW...
$$

 *****  OTHER OBSERVATIONS SOUTHEAST NORTH DAKOTA *****

CITY           SKY/WX    TMP DP  RH WIND       PRES   REMARKS
COOPERSTOWN    NOT AVBL
VALLEY CITY    FAIR      73  64  73 NW10      29.90S
OAKES            N/A     73  66  78 W12       29.91S
GWINNER        NOT AVBL
SHEYENNE NWR     N/A     73  64  73 W7        29.95S
BUFFALO        NOT AVBL
WYNDMERE       NOT AVBL
 ***** THE ABOVE OBSERVATIONS ARE NON NWS ARE NOT QUALITY
       CONTROLLED AND MAY MIS-REPORT RAIN FOR SNOW...
$$

  *****  WEATHER ACROSS NORTHERN MINNESOTA  *****

CITY           SKY/WX    TMP DP  RH WIND       PRES   REMARKS
FLAG ISLAND    MOSUNNY   70  57  64 N9        29.82S
WARROAD        SUNNY     73  63  68 NE9       29.83S
ROSEAU         SUNNY     75  64  69 N8        29.83S
HALLOCK        SUNNY     72  64  78 NW9       29.83S
THF RVR FALLS  SUNNY     70  63  78 NW8       29.83S
HALSTAD        NOT AVBL
FOSSTON        SUNNY     72  63  73 CALM      29.85S
BAUDETTE       SUNNY     73  61  65 N10       29.81R
WASKISH        SUNNY     73  64  73 SW5       29.81R
CROOKSTON      SUNNY     72  63  73 N10       29.84S
$$
  *****  WEATHER ACROSS CENTRAL AND WEST MINNESOTA  *****

CITY           SKY/WX    TMP DP  RH WIND       PRES   REMARKS
BEMIDJI        MOSUNNY   71  62  74 NW13      29.82F
PARK RAPIDS    SUNNY     76  62  62 W10       29.83S
WADENA         SUNNY     73  64  73 W8        29.84S
DETROIT LAKES  SUNNY     72  61  68 W10       29.86F
MOORHEAD       SUNNY     73  63  68 W6        29.85S
FERGUS FALLS   SUNNY     70  66  88 W6        29.87S
ELBOW LAKE     FAIR      69  64  83 W7        29.88S
MORRIS MN      SUNNY     73  64  73 NW9       29.88S
STAPLES        SUNNY     77  63  61 W10       29.83F
WHEATON        SUNNY     70  63  78 W8        29.90S
$$
  *****  WEATHER ELSEWHERE ACROSS MINNESOTA  *****

CITY           SKY/WX    TMP DP  RH WIND       PRES   REMARKS
DULUTH         PTSUNNY   75  62  64 N10G16    29.80R THUNDER
INTRNTL FALLS  SUNNY     73  60  63 N9        29.79S
ELY            CLOUDY    61  59  94 SW6       29.78F
CLOQUET        MOSUNNY   75  63  64 W8        29.79S THUNDER
BRAINERD       MOSUNNY   77  61  57 NW7       29.82F
HIBBING        MOSUNNY   67  59  75 CALM      29.80S
ALEXANDRIA     SUNNY     73  64  73 NW10      29.89R
SAINT CLOUD    SUNNY     78  63  59 W7        29.83F
MINNEAPOLIS    MOSUNNY   78  64  61 W8        29.83F
$$

  *****  WEATHER ACROSS SOUTH DAKOTA  *****

CITY           SKY/WX    TMP DP  RH WIND       PRES   REMARKS
SIOUX FALLS    CLOUDY    80  61  52 NW12      29.95S
BROOKINGS      SUNNY     75  63  64 W10       29.96S
WATERTOWN      SUNNY     75  61  61 W10       29.94F
HURON          SUNNY     77  62  59 NW12      29.96F HAZE
SISSETON         N/A     77  60  55 NW13      29.88F
ABERDEEN       SUNNY     78  61  55 W9        29.94F
MITCHELL       SUNNY     78  63  59 NW9       29.97F HAZE
PIERRE         SUNNY     79  64  60 VRB5      29.99S
MOBRIDGE       SUNNY     81  61  50 NW8       29.97F
RAPID CITY     SUNNY     79  62  56 N10       30.09S
$$

  *****  SOME WEATHER IN NEARBY STATES *****

CITY           SKY/WX    TMP DP  RH WIND       PRES   REMARKS
GLASGOW MT     SUNNY     85  60  42 W8        30.00F
GREAT FALLS MT SUNNY     79  49  34 SW5       30.09F
CHEYENNE WY    SUNNY     74  55  51 SW7       30.30S
SCOTTSBLUFF NE MOSUNNY   75  56  51 SW5       30.18S
OMAHA NE       CLOUDY    79  64  60 NW6       29.94S
DES MOINES IA  MOSUNNY   80  64  58 NW9       29.88S
DAVENPORT IA   CLOUDY    69  63  81 W7        29.85F
CHICAGO IL     PTSUNNY   71  64  78 NE7       29.81S
EAU CLAIRE WI  MOSUNNY   74  63  68 CALM      29.81S
LA CROSSE WI   PTSUNNY   72  63  73 NW7       29.82S
$$

  *****  SOME NATIONAL WEATHER *****

CITY           SKY/WX    TMP DP  RH WIND       PRES   REMARKS
LA GUARDIA NY  PTSUNNY   72  54  53 W9        29.90R
RALEIGH NC     MOSUNNY   81  58  45 E8        30.00S
ATLANTA GA     PTSUNNY   81  60  48 VRB6      30.05S
NEW ORLEANS LA PTSUNNY   87  72  60 W12       30.06S HX  93
OKLAHOMA CITY  PTSUNNY   90  64  42 W10       29.98S HX  91
ALBUQUERQUE NM MOSUNNY   80  46  30 N5        30.26S
SALT LAKE CITY MOSUNNY   91  48  22 SE7       30.07S
LOS ANGELES CA PTSUNNY   73  62  68 W6        29.91S
BOISE ID       PTSUNNY   84  53  34 CALM      30.00S
SEATTLE WA     MOSUNNY   69  58  67 S8        30.00R
$$

*** WEATHER ACROSS MANITOBA...SASKATCHEWAN AND ONTARIO ***
                ***ONTARIO***

CITY           SKY/WX    TMP DP  RH WIND       PRES   REMARKS
GERALDTON      TSTM      68  61  77 W5        29.70R
THUNDER BAY    LGT RAIN  64  63  94 W5        29.73S
SIOUX LOOKOUT  CLOUDY    63  57  82 N6        29.79R
TORONTO        PTSUNNY   70  55  60 VRB2      29.90S
BIG TROUT LK   SUNNY     52  39  62 NE9G17    29.93R
PICKLE LAKE    CLOUDY    52  50  93 N9G20     29.81R
DRYDEN         CLOUDY    63  57  82 N7G18     29.81R
KENORA         CLOUDY    66  59  77 N13G18    29.84R
$$
                *** MANITOBA***

CITY           SKY/WX    TMP DP  RH WIND       PRES   REMARKS
BRANDON        CLOUDY    73  57  56 NE13      29.93S
DAUPHIN        SUNNY     70  59  68 CALM      29.93F
ISLAND LAKE    CLOUDY    54  50  87 E7        29.98S
PILOT MOUND      N/A     68  59  73 N9          N/A
THE PAS        CLOUDY    68  59  73 E10       29.94S
THOMPSON       CLOUDY    54  48  82 E5        30.02S
WINNIPEG       MOSUNNY   72  64  78 NE13G18   29.88R
LYNN LAKE      CLOUDY    59  55  88 E6        30.01R
$$
                ***SASKATCHEWAN***

CITY           SKY/WX    TMP DP  RH WIND       PRES   REMARKS
ESTEVAN        MOSUNNY   82  57  42 W7        29.97F
KINDERSLEY     MOSUNNY   79  54  41 SE7       30.09S SMOKE
LLOYDMINSTER   CLOUDY    72  48  43 VRB2      30.10F SMOKE
PRINCE ALBERT  SMOKE     66  54  63 NW6       30.03R VSB 1/2
REGINA         PTSUNNY   82  61  47 NW12      29.99F
YORKTON        CLOUDY    70  61  73 NW5       29.95S
N. BATTLEFORD  SUNNY     72  52  49 NW3       30.10R HAZE


USA.gov is the U.S. government's official web portal to all federal, state and local government web resources and services.